CAPE
0 0 0 0 0 0 0 0 0 0 0 0 0 0 0 0 0 0 0 0 2 37 73 54 27 25 32 22 37 51 55 34 23 17 12 12 54 524
0 0 0 0 0 0 0 0 0 0 0 0 0 0 0 0 0 0 0 17 10 20 52 57 51 20 25 21 36 46 64 23 18 20 16 20 12 7
0 0 0 0 0 0 0 0 0 0 0 0 0 0 0 0 0 0 0 0 0 9 32 71 82 71 40 60 53 44 38 33 21 19 22 0 26 8
0 0 0 0 0 0 0 0 0 0 0 0 0 0 0 0 0 0 0 0 0 3 22 39 83 88 90 66 58 56 51 34 21 15 19 0 3 1
0 0 0 0 0 0 0 0 0 0 0 0 0 0 0 0 0 0 0 0 0 0 9 29 27 19 75 74 65 70 68 38 32 17 6 4 11 0
0 0 0 0 0 0 0 0 0 0 0 0 0 0 0 0 0 0 0 0 0 0 1 5 10 21 37 67 65 75 53 29 22 3 6 0 0 0
0 0 0 0 0 0 0 0 0 0 0 0 0 0 1 0 0 0 0 0 0 0 0 0 2 4 1 3 26 42 50 28 19 9 40 7 4 2
0 0 0 0 0 0 0 0 0 0 0 0 2 1 1 0 0 0 1 3 1 0 2 2 6 3 7 5 0 32 38 17 16 18 22 30 2 0
0 0 0 0 0 0 0 0 0 0 2 1 5 0 0 0 0 0 0 4 15 14 20 15 17 16 4 17 22 31 21 19 11 24 31 11 6 0
0 0 0 0 0 0 0 0 0 0 0 0 0 0 0 0 6 18 16 16 12 6 8 10 6 15 0 0 17 27 29 13 6 0 10 21 0 0
0 0 0 0 0 0 0 0 0 0 1 0 0 0 7 22 31 13 14 12 7 3 3 6 1 1 0 0 0 29 7 12 0 0 24 2 0 0
0 0 0 0 0 0 0 0 0 0 0 0 0 0 0 0 10 6 9 12 9 28 13 3 16 35 42 15 20 28 7 1 0 13 27 0 0 0
0 0 0 0 0 0 0 0 0 2 0 0 0 0 0 1 2 1 3 7 13 12 9 14 31 0 4 12 2 29 6 14 26 34 0 0 0 0
0 0 0 1 0 0 0 0 9 3 0 0 0 0 0 1 0 0 0 4 2 7 8 1 19 0 56 50 46 42 27 27 7 0 0 0 0 0
0 0 0 0 0 0 0 4 0 0 0 0 0 0 0 0 0 1 0 3 1 12 22 52 47 13 0 0 3 2 2 1 0 0 0 0 0 0
0 0 0 0 0 0 0 0 0 0 0 0 1 0 0 0 1 1 3 2 10 13 3 1 0 0 2 2 1 0 0 0 0 0 0 0 0 0
0 0 0 0 0 0 0 0 0 0 0 0 0 0 0 1 1 0 2 0 1 5 1 1 0 0 0 0 0 0 0 0 0 0 0 0 0 0
0 0 0 0 0 0 0 0 0 0 0 0 6 0 0 3 4 1 2 2 3 1 2 1 0 0 0 0 0 0 0 0 0 0 0 0 0 0
0 0 0 0 0 0 0 0 0 0 0 2 4 0 0 3 4 4 3 2 5 2 2 1 0 0 0 0 0 0 0 0 0 0 0 0 0 0
0 0 0 0 0 0 0 0 0 0 0 8 4 0 0 3 5 5 3 2 1 1 2 0 0 0 0 0 0 0 0 0 0 0 0 0 0 0
0 0 0 0 0 0 0 0 0 2 17 16 6 0 0 3 3 4 4 2 1 3 4 2 4 0 0 0 0 0 0 0 0 0 0 0 0 0
0 0 0 0 0 0 0 0 0 2 8 10 9 0 0 1 4 4 5 3 2 2 0 0 2 0 0 0 0 0 0 0 0 0 0 0 0 0
0 0 0 0 0 0 0 0 0 0 4 3 7 0 0 2 4 3 5 3 2 1 1 1 2 2 0 0 0 0 0 0 0 0 0 0 0 0
CIN
0 0 0 0 0 0 0 0 0 0 0 0 0 0 0 0 0 0 0 0 0 0 0 0 0 0 0 0 0 0 0 0 0 0 0 -3 -23 0
0 0 0 0 0 0 0 0 0 0 0 0 0 0 0 0 0 0 0 -3 -2 0 0 0 0 0 0 0 0 0 0 0 0 0 0 -11 -23 0
0 0 0 0 0 0 0 0 0 0 0 0 0 0 0 0 0 0 0 0 0 -3 -1 0 0 0 0 0 0 0 0 0 0 0 0 0 -12 -2
0 0 0 0 0 0 0 0 0 0 0 0 0 0 0 0 0 0 0 0 0 -1 0 0 0 0 0 0 0 0 0 0 0 0 0 0 0 -2
0 0 0 0 0 0 0 0 0 0 0 0 0 0 0 0 0 0 0 0 0 0 -8 0 -1 -2 0 0 0 0 0 -1 0 0 0 0 0 0
0 0 0 0 0 0 0 0 0 0 0 0 0 0 0 0 0 0 0 0 0 0 -3 -5 -2 -2 0 0 0 0 -1 -4 0 0 0 0 0 0
0 0 0 0 0 0 0 0 0 0 0 0 0 0 -4 0 0 0 0 0 0 0 0 0 -2 -2 -2 -9 -1 0 -1 0 0 0 0 -1 0 -1
0 0 0 0 0 0 0 0 0 0 0 0 -18 -13 -5 0 0 -10 -9 -3 -1 0 -4 -1 -1 -1 -2 -7 0 -2 0 0 0 0 0 -1 -1 0
0 0 0 0 0 0 0 0 0 0 -1 -10 -9 0 0 -8 0 0 -2 -2 0 -2 -2 0 -3 0 -8 -2 -6 0 0 0 0 -1 -3 -5 0 0
0 0 0 0 0 0 0 0 0 0 0 0 0 0 0 0 -11 -4 -2 0 -1 -2 -1 0 -3 -1 0 -1 -4 -1 0 -1 -1 0 -10 -2 -24 0
0 0 0 0 0 0 0 0 0 0 0 0 0 0 0 0 0 -2 0 0 0 0 -1 0 -4 -1 -1 0 0 -3 -4 -1 0 0 0 -7 0 0
0 0 0 0 0 0 0 0 0 0 0 0 0 0 -7 0 0 -1 0 0 0 0 -22 -89 -17 -8 -1 -4 -4 -4 -2 -3 -1 -1 -1 0 0 0
0 0 0 0 0 0 0 0 0 -1 0 0 0 0 0 -2 -2 -1 -1 0 0 -1 -2 -26 -14 0 -26 -19 -3 -3 -4 -3 0 -1 0 0 0 0
0 0 0 -3 0 0 0 0 0 0 0 0 0 0 -1 -1 0 0 -1 0 0 0 0 -1 -2 -3 -38 -4 0 -3 -1 -1 -2 -1 0 0 0 0
0 0 0 0 0 0 0 0 0 0 0 0 0 0 0 -1 0 -1 -1 0 0 -4 -2 -2 -2 -1 -1 -6 -1 -1 -7 -1 -1 0 0 0 0 0
0 0 0 0 0 0 0 0 0 0 0 0 -9 0 0 -1 0 -1 0 0 -17 -4 -24 0 0 0 -1 -2 -1 0 0 0 0 0 0 0 0 0
0 0 0 0 0 0 0 0 0 0 0 0 -1 0 0 0 0 -1 0 0 0 -1 0 0 -1 0 0 0 0 0 0 0 0 0 0 0 0 0
0 0 0 0 0 0 0 0 0 0 0 0 -14 0 0 0 0 0 0 0 0 0 0 0 0 0 0 0 0 0 0 0 0 0 0 0 0 0
0 0 0 0 0 0 0 0 0 0 0 -24 -11 0 0 0 0 0 0 0 0 0 0 0 0 0 0 0 0 0 0 0 0 0 0 0 0 0
0 0 0 0 0 0 0 0 0 0 -5 -19 -14 0 0 0 0 0 0 0 0 0 0 0 0 0 0 0 0 0 0 0 0 0 0 0 0 0
0 0 0 0 0 0 0 0 0 -24 -13 -19 -17 0 0 0 0 0 0 0 0 0 0 0 0 0 0 0 0 0 0 0 0 0 0 0 0 0
0 0 0 -4 0 0 0 0 0 -7 -12 -14 -16 0 0 0 0 0 0 0 0 0 0 0 0 0 0 0 0 0 0 0 0 0 0 0 0 0
0 0 0 0 0 0 0 0 -1 -1 -17 -24 -12 0 0 0 0 0 0 0 0 0 0 0 0 -1 0 0 0 0 0 0 0 0 0 0 0 0
Wind_Speed
7 6 4 3 3 4 3 4 5 3 3 3 3 4 4 4 7 6 6 10 18 18 18 17 18 22 22 22 22 21 21 22 23 20 16 18 12 15
5 7 5 4 4 4 4 3 3 5 5 2 4 4 5 5 7 8 6 15 17 21 20 20 19 19 22 23 21 21 21 23 21 21 13 18 7 7
6 8 8 7 4 3 2 2 3 3 5 4 4 4 4 6 6 6 8 6 7 19 24 20 17 20 24 24 23 21 22 22 21 21 16 18 12 14
9 8 7 4 5 5 4 5 5 5 4 7 4 3 5 6 6 8 9 10 8 15 19 20 21 21 23 23 22 21 20 21 21 21 19 18 18 8
9 8 7 7 5 4 5 5 4 3 3 3 6 3 3 4 10 7 8 12 9 19 22 22 23 25 24 22 23 22 20 21 20 22 20 16 19 13
8 8 8 8 7 5 4 4 3 3 2 3 4 5 6 5 8 10 10 8 8 9 15 20 26 27 26 25 25 22 23 23 22 23 17 13 14 8
8 7 7 8 8 8 3 2 3 3 3 4 6 6 9 8 10 8 11 11 11 11 13 11 11 11 12 19 20 23 24 24 23 21 14 14 11 12
7 7 6 11 11 11 11 12 9 4 5 4 9 10 12 10 10 10 10 12 18 10 13 13 11 12 10 8 16 19 24 25 22 18 14 18 17 10
8 7 5 4 9 5 6 10 10 13 14 9 11 10 13 6 10 15 16 14 15 14 11 13 10 10 9 10 20 21 24 23 20 16 11 18 16 19
8 7 7 5 5 4 1 3 5 6 8 9 9 8 9 13 14 14 16 17 15 14 13 13 9 10 8 9 20 21 22 22 19 19 15 15 23 24
7 7 7 6 5 4 3 5 5 6 10 17 21 25 26 27 24 14 12 11 13 13 11 7 5 7 7 7 8 21 23 22 22 19 17 19 24 25
6 6 11 8 8 7 3 4 5 6 6 10 10 13 17 18 27 14 11 11 11 9 3 7 5 5 4 5 9 11 11 24 18 21 22 25 25 12
5 5 4 13 10 8 8 3 5 8 10 8 7 10 11 13 12 12 13 11 10 11 6 5 5 5 2 7 7 10 11 11 12 17 28 26 20 17
6 4 6 13 12 8 5 8 11 12 6 4 8 10 11 13 13 15 17 15 14 17 8 12 3 5 8 14 14 12 13 13 14 15 14 17 18 16
6 13 15 11 6 4 6 6 10 4 4 3 9 8 10 12 16 14 17 17 16 13 8 6 6 8 12 9 14 15 15 11 13 14 11 11 11 10
10 6 6 6 4 5 5 4 3 3 3 3 8 7 10 10 12 11 13 13 4 8 13 13 14 17 14 12 13 15 12 8 12 12 11 7 8 7
7 4 4 3 2 3 1 1 3 3 3 4 7 7 10 10 11 12 12 9 6 7 10 11 17 16 13 14 13 11 14 14 11 12 10 8 4 6
5 4 3 3 2 2 2 2 2 4 2 4 6 6 9 10 12 12 11 9 5 6 8 12 11 13 11 14 12 13 11 12 10 10 8 9 4 3
4 3 4 4 3 2 2 2 2 3 4 4 3 6 8 8 12 10 10 9 5 6 7 8 11 10 11 9 3 10 13 10 10 8 5 4 4 3
3 4 4 4 3 2 2 2 2 4 4 3 3 5 7 8 9 9 10 10 7 4 7 6 5 9 13 9 7 4 9 11 10 8 4 4 7 13
4 4 4 4 3 3 3 2 1 4 4 3 2 4 6 7 8 9 9 14 12 2 4 6 4 10 10 12 10 8 5 9 8 7 6 7 4 3
4 5 4 4 3 3 2 2 2 4 3 4 3 3 5 6 7 8 8 8 7 7 1 5 11 9 8 11 12 11 5 5 17 20 16 5 6 5
5 4 4 4 4 2 1 0 1 3 2 4 4 3 4 7 7 7 8 7 7 8 1 7 9 8 6 9 12 11 9 11 7 5 5 14 7 2
Wind_Direction
180 179 170 191 179 187 184 169 168 283 285 254 276 282 286 281 268 272 262 269 286 287 283 280 278 276 274 276 274 275 274 275 272 270 285 261 334 218
171 175 187 191 203 203 192 198 181 194 254 253 265 268 274 288 286 289 282 285 284 286 284 280 280 277 282 278 267 273 269 266 266 266 278 270 211 307
171 177 188 186 190 195 192 212 217 206 250 270 252 260 281 275 287 302 286 271 269 280 281 272 274 280 282 274 268 266 261 260 259 260 254 263 248 256
183 174 185 182 200 205 200 225 229 237 226 267 251 276 256 261 271 276 269 272 263 268 277 270 266 274 272 269 266 261 252 253 252 252 250 248 236 263
171 172 181 186 206 204 215 222 232 244 252 264 283 273 266 303 291 275 282 274 264 264 266 270 277 280 270 265 261 249 239 241 242 245 244 240 214 230
172 172 180 186 189 207 225 239 263 298 300 297 294 300 286 280 286 284 284 266 270 271 271 271 274 274 258 271 252 239 223 226 230 235 247 228 203 212
165 171 176 175 200 211 171 254 299 290 284 281 283 283 282 286 275 275 275 277 270 270 270 261 260 258 261 262 259 225 214 216 220 228 207 199 188 182
164 173 170 200 219 228 245 255 240 225 242 247 269 274 287 283 277 278 282 283 287 254 258 257 242 250 241 240 227 212 205 208 212 213 202 176 186 193
158 162 174 181 194 172 235 268 286 289 289 282 279 279 283 288 288 283 278 270 271 281 264 254 230 229 243 234 211 208 201 200 199 183 209 180 185 172
161 168 168 159 153 142 155 286 283 276 275 275 276 289 291 292 284 286 288 281 276 272 260 257 230 227 224 217 202 195 191 189 171 183 206 184 164 151
162 155 147 148 173 233 210 259 285 280 292 308 310 305 300 296 298 296 287 289 283 277 268 213 194 204 196 187 187 189 183 178 172 185 189 159 144 139
156 158 161 163 190 220 209 259 293 279 299 303 297 293 295 294 298 294 282 276 271 276 228 177 172 164 171 158 170 173 176 176 182 186 169 143 137 137
153 163 179 189 185 199 229 227 257 288 304 299 292 300 304 303 303 304 295 278 273 262 180 206 182 174 161 143 155 162 166 167 171 161 145 136 141 140
148 132 123 148 168 203 254 278 295 306 290 291 308 310 313 312 316 314 304 302 282 263 202 179 157 156 221 124 156 150 140 142 141 139 136 124 121 111
110 121 127 139 175 243 276 295 302 284 298 324 308 311 311 308 312 316 319 316 312 60 110 150 143 150 105 108 119 120 122 123 132 129 130 135 132 129
120 121 140 150 180 239 261 282 269 290 299 311 311 313 312 322 326 332 324 324 19 52 56 64 77 90 94 101 111 115 116 118 132 127 121 101 122 136
139 124 119 135 227 262 186 85 317 325 7 317 317 327 323 333 337 338 335 331 38 77 74 59 68 71 82 106 103 105 120 118 119 122 112 112 104 137
113 109 117 138 216 235 102 45 316 347 13 323 320 337 330 341 343 341 345 350 31 74 94 104 89 87 82 60 52 116 111 114 123 117 118 126 109 133
109 131 146 182 194 125 95 70 329 360 359 309 320 341 335 345 348 345 348 359 29 64 87 113 115 109 102 86 21 51 119 121 125 117 109 90 118 140
121 144 167 154 146 140 96 83 345 338 305 315 3 350 343 348 350 355 348 354 349 82 97 98 106 122 123 121 114 83 97 131 139 133 109 70 78 86
150 142 137 137 137 142 112 84 0 292 308 335 37 352 351 353 355 354 347 355 6 24 119 125 92 107 114 119 114 109 55 51 105 122 124 111 104 100
147 143 146 147 133 122 117 91 320 312 348 6 23 11 352 357 354 347 355 351 350 337 121 131 124 128 129 134 135 129 105 79 81 79 55 62 157 165
134 150 150 145 126 116 104 175 279 299 10 47 27 19 356 353 355 346 346 348 340 337 302 134 133 141 125 138 136 136 123 134 132 92 40 12 16 96